KLM708 KDED-MMUN

Flight info

Callsign KLM708
Flight time N/A
Altitude 16000
Route A
Aircraft B732/M-V/N

Departure

Time 2026-05-05 23:43
Airport Deland Municipal Sidney H Taylor Field (KDED)

Arrival

Time N/A
Airport Cancún International Airport (MMUN)
Time Latitude Longitude Altitude Speed Heading
2026-05-05 23:42 29.07225 -81.29227 74 ft 0 kts 117°
2026-05-05 23:42 29.07221 -81.29218 74 ft 10 kts 117°
2026-05-05 23:43 29.07066 -81.28866 75 ft 88 kts 117°
2026-05-05 23:43 29.06691 -81.28028 107 ft 142 kts 117°
2026-05-05 23:43 29.06183 -81.27032 579 ft 153 kts 120°
2026-05-05 23:43 29.05721 -81.25745 840 ft 194 kts 106°
2026-05-05 23:44 29.04987 -81.24454 1771 ft 202 kts 149°
2026-05-05 23:44 29.03689 -81.24320 2724 ft 209 kts 204°
2026-05-05 23:44 29.02401 -81.25418 2942 ft 252 kts 219°
2026-05-05 23:44 29.01217 -81.26714 4647 ft 226 kts 227°
2026-05-05 23:45 29.00328 -81.27800 6453 ft 179 kts 223°
2026-05-05 23:45 28.99500 -81.28722 7189 ft 183 kts 222°
2026-05-05 23:45 28.98470 -81.29820 7398 ft 219 kts 222°
2026-05-05 23:45 28.97294 -81.31055 7869 ft 242 kts 222°
2026-05-05 23:46 28.95990 -81.32413 8497 ft 260 kts 222°
2026-05-05 23:46 28.94627 -81.33817 9210 ft 273 kts 222°
2026-05-05 23:46 28.93203 -81.35268 9983 ft 282 kts 222°
2026-05-05 23:46 28.91713 -81.36767 10806 ft 289 kts 222°
2026-05-05 23:47 28.90529 -81.37946 11462 ft 293 kts 222°
2026-05-05 23:47 28.89239 -81.39216 12058 ft 295 kts 222°
2026-05-05 23:47 28.87685 -81.40730 12799 ft 296 kts 222°
2026-05-05 23:47 28.86124 -81.42236 13537 ft 296 kts 222°
2026-05-05 23:48 28.84547 -81.43745 14274 ft 295 kts 222°
2026-05-05 23:48 28.82996 -81.45217 14986 ft 294 kts 222°
2026-05-05 23:48 28.81418 -81.46703 15675 ft 293 kts 222°
2026-05-05 23:48 28.79820 -81.48201 15942 ft 307 kts 222°
2026-05-05 23:49 28.78133 -81.49783 16007 ft 327 kts 222°
2026-05-05 23:49 28.76326 -81.51484 16028 ft 347 kts 222°
2026-05-05 23:49 28.74399 -81.53306 16028 ft 368 kts 222°
2026-05-05 23:49 28.72376 -81.55227 16023 ft 387 kts 222°
2026-05-05 23:50 28.70292 -81.57213 16017 ft 404 kts 222°
2026-05-05 23:50 28.68076 -81.59332 16014 ft 420 kts 222°
2026-05-05 23:50 28.65811 -81.61504 16011 ft 435 kts 222°
2026-05-05 23:50 28.63635 -81.63596 16011 ft 448 kts 222°
2026-05-05 23:51 28.61709 -81.65452 16014 ft 458 kts 221°
2026-05-05 23:51 28.59269 -81.67812 16014 ft 470 kts 222°
2026-05-05 23:51 28.56740 -81.70260 15840 ft 485 kts 221°
2026-05-05 23:51 28.54147 -81.72755 15502 ft 501 kts 221°
2026-05-05 23:52 28.51441 -81.75378 15187 ft 516 kts 222°
2026-05-05 23:52 28.48723 -81.78050 15081 ft 522 kts 222°
2026-05-05 23:52 28.45973 -81.80751 15429 ft 520 kts 222°
2026-05-05 23:52 28.43234 -81.83447 15267 ft 529 kts 222°
2026-05-05 23:53 28.40447 -81.86194 15177 ft 533 kts 222°
2026-05-05 23:53 28.37639 -81.88966 15198 ft 535 kts 222°
2026-05-05 23:53 28.34843 -81.91729 15210 ft 537 kts 222°
2026-05-05 23:53 28.33114 -81.93437 15217 ft 537 kts 222°
2026-05-05 23:54 28.30421 -81.96100 15226 ft 538 kts 222°
2026-05-05 23:54 28.27607 -81.98882 15232 ft 539 kts 222°
2026-05-05 23:54 28.24844 -82.01691 15216 ft 539 kts 226°
2026-05-05 23:54 28.22560 -82.05055 15171 ft 538 kts 237°
2026-05-05 23:55 28.21608 -82.06834 15245 ft 536 kts 242°
2026-05-05 23:55 28.20513 -82.09903 15018 ft 533 kts 253°
2026-05-05 23:55 28.20110 -82.14019 15017 ft 524 kts 275°
2026-05-05 23:55 28.21516 -82.17831 14389 ft 534 kts 304°
2026-05-05 23:56 28.24101 -82.20641 14217 ft 511 kts 325°
2026-05-05 23:56 28.27384 -82.22124 13463 ft 503 kts 349°
2026-05-05 23:56 28.30763 -82.22269 13618 ft 474 kts 358°
2026-05-05 23:56 28.33942 -82.22252 13851 ft 442 kts 358°
2026-05-05 23:57 28.36935 -82.22182 13728 ft 426 kts
2026-05-05 23:57 28.39863 -82.21728 12954 ft 425 kts
2026-05-05 23:57 28.42675 -82.21198 13096 ft 401 kts
2026-05-05 23:57 28.45361 -82.20721 13058 ft 382 kts
2026-05-05 23:58 28.47829 -82.20351 13851 ft 343 kts
2026-05-05 23:58 28.50160 -82.20179 13980 ft 332 kts 359°
2026-05-05 23:58 28.52466 -82.20074 13461 ft 334 kts 359°
2026-05-05 23:58 28.54772 -82.20084 13082 ft 330 kts 355°
2026-05-05 23:59 28.57011 -82.20336 12974 ft 316 kts 348°
2026-05-05 23:59 28.59077 -82.20897 12729 ft 309 kts 343°
2026-05-05 23:59 28.61204 -82.21351 12263 ft 310 kts 348°
2026-05-05 23:59 28.63345 -82.21760 11557 ft 320 kts 349°
2026-05-06 00:00 28.65457 -82.22058 11889 ft 292 kts 353°
2026-05-06 00:00 28.67421 -82.22154 12093 ft 270 kts 357°
2026-05-06 00:00 28.69197 -82.22169 12249 ft 249 kts 358°
2026-05-06 00:00 28.70859 -82.22157 12349 ft 228 kts 358°
2026-05-06 00:01 28.72378 -82.22134 12386 ft 210 kts 358°
2026-05-06 00:01 28.73789 -82.22117 12214 ft 201 kts 356°
2026-05-06 00:01 28.75235 -82.22181 11982 ft 211 kts 353°
2026-05-06 00:01 28.76676 -82.22285 12093 ft 208 kts 353°
2026-05-06 00:02 28.78157 -82.22401 12137 ft 210 kts 354°
2026-05-06 00:02 28.79588 -82.22500 12042 ft 211 kts 353°
2026-05-06 00:02 28.81102 -82.22661 12015 ft 227 kts 349°
2026-05-06 00:02 28.82719 -82.22938 12023 ft 238 kts 348°
2026-05-06 00:03 28.84332 -82.23238 11706 ft 240 kts 348°
2026-05-06 00:03 28.85959 -82.23547 11633 ft 223 kts 348°
2026-05-06 00:03 28.87451 -82.23844 11781 ft 223 kts 347°
2026-05-06 00:03 28.89047 -82.24174 11503 ft 247 kts 347°
2026-05-06 00:04 28.90786 -82.24545 11483 ft 258 kts 347°
2026-05-06 00:04 28.92591 -82.24892 11517 ft 268 kts 354°
2026-05-06 00:04 28.94478 -82.24773 11537 ft 273 kts
2026-05-06 00:04 28.96324 -82.24444 11658 ft 270 kts
2026-05-06 00:05 29.00001 -82.23332 11582 ft 279 kts 22°
2026-05-06 00:05 29.01670 -82.22194 11530 ft 284 kts 39°
2026-05-06 00:05 29.02934 -82.20464 11442 ft 290 kts 63°
2026-05-06 00:06 29.03361 -82.18206 11092 ft 303 kts 98°
2026-05-06 00:06 29.02616 -82.15938 10803 ft 304 kts 120°
2026-05-06 00:06 29.01530 -82.14040 11000 ft 271 kts 127°
2026-05-06 00:06 29.00602 -82.12151 10186 ft 281 kts 112°
2026-05-06 00:07 29.00003 -82.10019 9183 ft 286 kts 112°
2026-05-06 00:07 28.99202 -82.08009 8544 ft 275 kts 120°
2026-05-06 00:07 28.98277 -82.06129 7880 ft 267 kts 122°
2026-05-06 00:07 28.97345 -82.04334 7290 ft 258 kts 125°
2026-05-06 00:08 28.96382 -82.02640 6548 ft 257 kts 129°
2026-05-06 00:08 28.95403 -82.00966 5896 ft 251 kts 125°
2026-05-06 00:08 28.94358 -81.99418 5123 ft 251 kts 128°
2026-05-06 00:08 28.93411 -81.97776 4439 ft 247 kts 125°
2026-05-06 00:09 28.92465 -81.96195 3926 ft 236 kts 133°
2026-05-06 00:09 28.91212 -81.94994 3029 ft 241 kts 138°
2026-05-06 00:09 28.90226 -81.93498 2498 ft 232 kts 119°
2026-05-06 00:09 28.89675 -81.91791 2032 ft 236 kts 103°
2026-05-06 00:10 28.89470 -81.89878 1663 ft 246 kts 101°
2026-05-06 00:10 28.89157 -81.87933 1431 ft 246 kts 109°
2026-05-06 00:10 28.88331 -81.86355 1167 ft 228 kts 138°
2026-05-06 00:10 28.87015 -81.85429 708 ft 221 kts 155°
2026-05-06 00:11 28.85656 -81.84780 488 ft 196 kts 152°
2026-05-06 00:11 28.84654 -81.84055 489 ft 146 kts 134°
2026-05-06 00:11 28.84047 -81.83270 175 ft 127 kts 128°
2026-05-06 00:11 28.83557 -81.82211 760 ft 181 kts 116°
2026-05-06 00:12 28.83122 -81.81206 788 ft 135 kts 122°
2026-05-06 00:12 28.82542 -81.80341 304 ft 137 kts 123°
2026-05-06 00:12 28.82159 -81.79423 243 ft 128 kts 99°
2026-05-06 00:12 28.82067 -81.78409 119 ft 131 kts 90°
2026-05-06 00:13 28.82092 -81.76929 1471 ft 197 kts 86°
2026-05-06 00:13 28.82403 -81.75477 1502 ft 183 kts 71°
2026-05-06 00:13 28.83156 -81.74305 1246 ft 187 kts 52°
2026-05-06 00:13 28.83932 -81.73152 1211 ft 188 kts 59°
2026-05-06 00:14 28.84618 -81.71820 1004 ft 200 kts 65°
2026-05-06 00:14 28.85120 -81.70329 990 ft 199 kts 81°
2026-05-06 00:14 28.85368 -81.68778 1021 ft 200 kts 81°
2026-05-06 00:14 28.85622 -81.67216 1037 ft 200 kts 83°
2026-05-06 00:15 28.85881 -81.65611 865 ft 211 kts 81°
2026-05-06 00:15 28.86068 -81.63957 863 ft 210 kts 92°
2026-05-06 00:15 28.85891 -81.62313 900 ft 207 kts 103°
2026-05-06 00:15 28.85622 -81.60696 839 ft 211 kts 99°
2026-05-06 00:16 28.85414 -81.59062 1057 ft 200 kts 96°
2026-05-06 00:16 28.85332 -81.57494 1170 ft 196 kts 98°
2026-05-06 00:16 28.85087 -81.55977 1115 ft 196 kts 103°
2026-05-06 00:16 28.84765 -81.54471 1068 ft 194 kts 103°
2026-05-06 00:17 28.84484 -81.52996 1113 ft 188 kts 102°
2026-05-06 00:17 28.84273 -81.51515 1042 ft 190 kts 97°
2026-05-06 00:17 28.84050 -81.50052 1012 ft 188 kts 103°
2026-05-06 00:17 28.83641 -81.48592 895 ft 197 kts 110°
2026-05-06 00:18 28.83178 -81.47114 891 ft 199 kts 107°
2026-05-06 00:18 28.82770 -81.45602 887 ft 201 kts 107°
2026-05-06 00:18 28.82328 -81.44099 972 ft 199 kts 107°
2026-05-06 00:18 28.81896 -81.42587 963 ft 202 kts 107°
2026-05-06 00:19 28.81516 -81.41019 941 ft 205 kts 104°
2026-05-06 00:19 28.81146 -81.39452 966 ft 205 kts 106°
2026-05-06 00:19 28.80689 -81.37879 854 ft 212 kts 110°
2026-05-06 00:19 28.80150 -81.36324 901 ft 211 kts 109°
2026-05-06 00:20 28.79708 -81.34734 944 ft 210 kts 106°
2026-05-06 00:20 28.79295 -81.33137 952 ft 211 kts 108°
2026-05-06 00:20 28.78802 -81.31589 912 ft 200 kts 111°
2026-05-06 00:20 28.78331 -81.30138 547 ft 188 kts 106°
2026-05-06 00:21 28.78172 -81.28849 433 ft 150 kts 92°
2026-05-06 00:21 28.78182 -81.27692 215 ft 135 kts 89°
2026-05-06 00:21 28.78202 -81.26650 110 ft 130 kts 86°
2026-05-06 00:21 28.78193 -81.25635 85 ft 126 kts 90°
2026-05-06 00:22 28.78191 -81.24628 68 ft 127 kts 86°
2026-05-06 00:22 28.78181 -81.23652 64 ft 110 kts 88°
2026-05-06 00:22 28.78166 -81.22952 64 ft 66 kts 90°
2026-05-06 00:22 28.78176 -81.22607 64 ft 21 kts 90°
2026-05-06 00:23 28.78175 -81.22546 63 ft 0 kts 91°